Weather History for Wink, TX

Change the Weather History Date:

Sunday, March 31, 2013

  Actual Average Record
Temperature  
Mean Temperature 72 °F -  
Max Temperature 80 °F 77 °F 97 °F (1940)
Min Temperature 63 °F 42 °F 22 °F (1972)
Cooling Degree Days 6    
Growing Degree Days 22 (Base 50)    
Moisture  
Dew Point 34 °F    
Average Humidity 26    
Maximum Humidity 45    
Minimum Humidity 13    
Precipitation  
Precipitation 0.00 in - - ()
Sea Level Pressure  
Sea Level Pressure 29.86 in    
Wind  
Wind Speed 10 mph (NNE)    
Max Wind Speed 24 mph    
Max Gust Speed 32 mph    
Visibility 10 miles    
Events      
Averages and records for this station are not official NWS values.
T = Trace of Precipitation, MM = Missing Value Source: NWS Daily Summary

Daily Weather History Graph

Daily Weather History Graph

Search for Another Location

Airport:

Trip Planner

Search our weather history database for the weather conditions in past years. The results will help you decide how hot, cold, wet, or windy it might be!

Date:

Astronomy

Mar. 31, 2013 Rise Set
Actual Time 7:42 AM CDT 8:11 PM CDT
Civil Twilight 7:17 AM CDT 8:36 PM CDT
Nautical Twilight 6:48 AM CDT 9:05 PM CDT
Astronomical Twilight 6:19 AM CDT 9:34 PM CDT
Moon 12:05 AM CDT (3/31) 10:47 AM CDT (3/31)
Length of Visible Light 13h 18m
Length of Day
12h 29m
Waning Gibbous, 77% of the Moon is Illuminated
Mar 31
Waning Gibbous
Apr 2
Last Quarter
Apr 10
New
Apr 18
First Quarter
Apr 25
Full

Hourly Weather History & Observations

Time (CDT) Temp. Dew Point Humidity Pressure Visibility Wind Dir Wind Speed Gust Speed Precip Events Conditions
12:53 AM 79.0 °F 25.0 °F 14% 29.82 in 10.0 mi West 15.0 mph 27.6 mph N/A   Partly Cloudy
1:53 AM 79.0 °F 24.1 °F 13% 29.80 in 10.0 mi West 8.1 mph - N/A   Mostly Cloudy
2:53 AM 73.0 °F 25.0 °F 17% 29.79 in 10.0 mi NNW 6.9 mph - N/A   Partly Cloudy
3:53 AM 68.0 °F 26.1 °F 21% 29.78 in 10.0 mi SSE 5.8 mph - N/A   Clear
4:53 AM 70.0 °F 26.1 °F 19% 29.78 in 10.0 mi SE 3.5 mph - N/A   Scattered Clouds
5:53 AM 71.1 °F 26.1 °F 19% 29.78 in 10.0 mi WSW 4.6 mph - N/A   Mostly Cloudy
6:53 AM 68.0 °F 26.1 °F 21% 29.80 in 10.0 mi North 4.6 mph - N/A   Mostly Cloudy
7:53 AM 66.0 °F 26.1 °F 22% 29.83 in 10.0 mi SW 3.5 mph - N/A   Clear
8:53 AM 66.9 °F 27.0 °F 22% 29.88 in 10.0 mi NW 9.2 mph - N/A   Clear
9:53 AM 68.0 °F 30.9 °F 25% 29.90 in 5.0 mi NNE 23.0 mph 29.9 mph N/A   Haze
10:53 AM 66.0 °F 44.1 °F 45% 29.91 in 10.0 mi NNE 24.2 mph 32.2 mph N/A   Clear
11:53 AM 70.0 °F 44.1 °F 39% 29.93 in 10.0 mi NNE 18.4 mph 25.3 mph N/A   Clear
12:53 PM 72.0 °F 44.1 °F 37% 29.95 in 10.0 mi ENE 13.8 mph 20.7 mph N/A   Clear
1:53 PM 73.9 °F 43.0 °F 33% 29.93 in 10.0 mi NNE 8.1 mph - N/A   Clear
2:53 PM 75.9 °F 41.0 °F 29% 29.91 in 10.0 mi ENE 8.1 mph - N/A   Clear
3:53 PM 79.0 °F 41.0 °F 26% 29.88 in 10.0 mi NE 9.2 mph - N/A   Clear
4:53 PM 79.0 °F 37.9 °F 23% 29.85 in 10.0 mi North 6.9 mph - N/A   Clear
5:53 PM 80.1 °F 39.9 °F 24% 29.83 in 10.0 mi NNE 6.9 mph - N/A   Clear
6:53 PM 79.0 °F 37.9 °F 23% 29.83 in 10.0 mi Variable 6.9 mph - N/A   Clear
7:53 PM 75.9 °F 37.9 °F 25% 29.85 in 10.0 mi North 3.5 mph - N/A   Clear
8:53 PM 73.0 °F 37.0 °F 27% 29.86 in 10.0 mi Calm Calm - N/A   Clear
9:53 PM 66.9 °F 36.0 °F 32% 29.88 in 10.0 mi East 6.9 mph - N/A   Clear
10:53 PM 63.0 °F 37.0 °F 38% 29.91 in 10.0 mi East 5.8 mph - N/A   Clear
11:53 PM 64.0 °F 39.0 °F 40% 29.90 in 10.0 mi East 10.4 mph - N/A   Clear